User: anonymous
Location: Slidell
(30.2789°N, 89.7378°W)
Time: 19:23:34
(UTC-05:00)
Language:

Cosmos 2360 Rocket - Orbit

View from above orbital plane
View from above orbital plane
View from above satellite
View from above satellite

Ground track
Ground track

The orbit data is extracted from the following two-line orbital elements,

1 25407U 98045B   14212.79627569  .00000265  00000-0  15961-3 0  5225
2 25407 071.0117 090.7433 0007980 354.3033 052.4873 14.15661059827383
Epoch (UTC): 31 July 2014 19:06:38
Eccentricity: 0.0007980
inclination: 71.0117°
perigee height: 834 km
apogee height: 846 km
right ascension of ascending node: 90.7433°
argument of perigee: 354.3033°
revolutions per day: 14.15661059
mean anomaly at epoch: 52.4873°
orbit number at epoch: 82738

The dashed part of the orbit path shows where the satellite is in the earth's shadow,  

DLR